{"data":{"norad_id":40012,"epoch":"2026-05-25T01:41:49.401024Z","epoch_age_seconds":72155,"freshness":"FRESH","line1":"1 40012U 14033C   26145.07071066  .00002536  00000+0  27645-3 0  9995","line2":"2 40012  97.7853 298.1962 0046104 143.4268 217.0111 14.88088147642721","mean_motion":14.88088147,"eccentricity":0.0046104,"inclination_deg":97.7853,"raan_deg":298.1962,"arg_perigee_deg":143.4268,"mean_anomaly_deg":217.0111,"bstar":0.00027645,"rev_number":64272,"period_min":96.768461122619,"perigee_km":571.71946488647,"apogee_km":636.09951918021,"semimajor_km":6982.0464920333,"source":"CELESTRAK","updated_at":"2026-05-25T13:38:23.286361Z"}}